Portada
METAR-TAF:

METAR-TAF

Aeroports :

Asahikawa-airbase, Japó

latitud: 43-48N, longitud: 142-22E, altitud: 115 m

Observació

L'informe es va fer fa 22 hores i 19 minuts, a les 03:02 UTC
Vent 11 kt del Oest/Sud-Oest amb ràfegues de 24 kt
Temperatura 20°C
Humitat 32%
Pressió 1009 hPa
Visibilitat 10 km o més
Escasses núvols a una alçada de 4000 ft

METAR: RJCA 160302Z 24011G24KT 9999 FEW040 20/03 Q1009 RMK 1CU040 A2981

Hora: 10:21 (01:21 UTC)


TAF: manca

Observacions i pronòstics meteorològics de més de 4000 aeroports (METAR i TAF).

Les estacions disponibles són els punts grocs i vermells al mapa.

Posi el ratolí al punt desitjat per veure el nom de l'estació.

Feu clic per veure les observacions i els pronòstics meteorològics.

Per canviar el mapa: feu clic els botons verds amb una creu de color negre per apropar; al botó verd amb un guió per allunyar la imatge; o en les fletxes verdes per a mapes adjacents.


METAR-TAF: